Terug naar catalogus

EUTE 28B

EUTE W2M

ActiefCommunicatieGEO
NORAD 33460·PAYLOAD·🇪🇺 EU

Gelanceerd Dec 20, 2008 vanaf Guiana Space Centre

Loading…

TLE

VersSource: Space-Track

Epoch: Sep 14, 2026, 10:57 UTC

1 33460U 08065B   26257.45630464 -.00000176  00000-0  00000-0 0  9994
2 33460   5.5557  73.2748 0000783 110.2447  94.3517  0.98762687 64678

Volg EUTE 28B in realtime met AllMySat

Download on the App Store